Location: ???? ???? ?????
(31.2680°N, 31.7283°E)
Time: 19:50:03
(UTC+00:00)

Cosmos 1943 Rocket - Pass Details

Date: 13 July 2020
Orbit: 811 x 845 km, 71.0° (Epoch: 05 August)

Event Time Altitude Azimuth Distance (km) Brightness Sun altitude
Rises 20:25:53 0° 347° (NNW) 3,403 6.4 -32.6°
Reaches altitude 10° 20:28:28 10° 354° (N) 2,462 5.4 -32.8°
Enters shadow 20:32:20 36° 27° (NNE) 1,299 3.3 -33.1°
